Vorticity
8 7 3 3 4 4 4 4 7 9 9 5 5 3 5 4 8 5 0 10 3 3 1 7 7 7 6 7 6 5 4 6 8 4 5 5 2 3 9 4 2 0 1 3 4 3 5 8 -1
4 4 7 5 2 11 7 4 9 14 4 3 1 0 0 3 3 5 6 7 12 3 2 2 7 6 6 7 6 5 5 6 8 4 5 5 2 2 6 5 4 -1 0 5 5 3 3 7 2
11 10 6 2 5 4 2 10 18 4 6 4 2 2 0 3 3 4 4 4 4 10 4 0 4 6 6 7 7 7 5 6 7 4 4 4 2 1 4 8 5 0 1 5 3 4 4 6 5
6 4 2 3 4 8 11 5 5 8 10 7 7 2 3 6 4 3 7 6 5 5 11 4 1 3 5 5 7 5 6 6 6 5 4 5 2 1 3 6 7 0 3 5 3 3 4 3 7
3 2 7 3 3 1 4 12 10 8 7 6 6 6 5 4 5 5 3 4 5 7 4 9 4 2 2 6 5 7 6 6 6 6 4 5 3 1 2 6 5 5 3 3 4 4 3 4 4
-2 2 2 3 2 4 3 10 7 11 8 6 5 8 9 5 3 5 4 4 5 4 6 5 7 4 0 2 5 6 6 6 7 7 5 4 4 2 1 4 5 7 4 6 4 4 3 2 3
4 3 4 3 8 6 2 9 7 12 12 16 11 6 9 9 5 5 5 3 4 4 3 5 5 7 4 1 2 5 7 5 6 7 6 4 4 3 1 1 5 4 5 6 4 4 4 3 2
6 3 2 -1 9 11 -2 7 8 3 7 11 9 3 13 12 7 5 4 5 3 4 2 3 4 6 7 4 1 3 6 7 6 6 6 5 4 4 2 1 2 6 5 6 7 4 3 4 4
6 -0 -2 6 7 4 5 4 8 3 2 5 9 8 13 10 8 7 4 4 5 4 2 2 5 3 5 8 2 2 4 6 6 6 6 6 5 4 3 2 1 3 6 6 7 7 5 3 4
5 -1 6 8 4 6 5 3 5 7 7 4 8 14 9 13 11 9 8 7 5 7 7 4 1 4 7 8 8 1 3 6 6 6 6 6 6 5 3 3 2 2 4 5 6 8 8 6 4
10 -12 20 10 6 6 6 6 1 5 3 6 8 11 11 13 10 8 9 9 7 11 11 9 5 7 7 12 9 4 1 4 6 6 6 6 7 7 4 4 2 2 2 4 5 7 10 9 6
4 7 11 9 5 7 6 6 4 4 7 4 6 7 7 11 13 9 9 8 6 6 6 6 8 3 7 8 10 6 1 2 5 8 6 6 7 7 5 4 2 2 3 4 4 5 7 9 9
4 12 11 9 5 5 7 7 5 6 0 8 5 6 8 6 13 12 6 7 5 4 6 7 6 5 4 5 8 7 4 2 3 6 8 6 6 7 6 4 3 3 2 3 4 5 7 8 9
20 13 8 7 9 7 8 5 15 2 5 9 6 9 7 6 7 14 8 6 5 3 4 6 6 7 7 8 13 9 6 3 3 6 7 7 6 6 6 5 4 3 3 3 3 4 5 7 8
24 13 13 10 11 9 7 11 15 -2 4 8 7 5 7 7 7 8 13 11 7 7 6 5 6 6 8 9 10 9 6 4 0 3 8 7 7 6 5 5 4 4 3 3 3 4 5 6 8
25 18 17 15 11 10 7 8 7 6 -1 9 13 8 8 6 8 9 11 10 10 7 5 3 9 11 9 10 10 9 5 4 1 2 5 9 5 8 6 5 5 5 4 3 3 4 4 5 6
33 22 17 24 8 13 2 8 2 1 8 3 8 11 7 7 7 7 9 10 10 10 7 4 9 9 3 8 12 9 7 8 5 3 4 8 9 4 7 8 7 5 4 3 5 4 4 5 5
31 29 20 38 14 20 6 26 7 -0 8 8 2 12 7 7 4 7 10 8 10 9 8 4 14 5 9 7 16 12 5 9 8 4 2 3 9 7 3 5 6 6 5 5 5 4 4 4 4
33 40 37 26 19 27 21 15 2 -2 4 7 2 2 10 9 4 3 9 12 12 11 9 5 4 9 10 10 19 12 7 6 5 3 3 6 8 9 7 5 4 4 4 4 4 5 4 4 4
15 19 22 40 39 14 17 30 12 7 16 7 4 1 4 8 7 6 6 3 11 13 13 9 1 3 8 8 12 10 6 9 8 6 3 1 -0 5 10 9 6 5 4 5 4 3 4 4 4
27 29 30 28 35 30 32 26 21 17 3 20 8 -1 6 3 7 7 4 4 6 8 14 9 4 3 6 6 7 7 7 8 12 16 8 4 1 1 3 6 8 8 8 7 6 5 5 4 5
26 23 29 30 32 32 38 46 24 14 21 13 11 6 3 4 6 10 5 2 8 7 7 11 4 5 9 7 5 4 6 7 7 6 12 9 6 3 2 0 3 6 6 7 7 7 6 6 6
-4 2 9 14 24 26 30 46 36 21 16 22 12 9 3 6 7 6 10 4 3 9 8 9 7 7 4 6 4 5 4 4 7 7 9 12 11 6 3 1 -1 0 2 4 5 5 5 5 6
8 7 31 30 10 22 40 42 50 36 17 17 19 17 3 3 10 7 5 8 5 6 6 7 9 4 4 5 4 2 6 7 7 5 9 9 11 9 7 6 7 5 2 1 1 1 2 3 3
26 8 -8 32 35 16 26 43 56 65 27 16 28 3 20 0 -3 13 6 4 4 1 10 2 6 8 7 5 7 6 5 6 8 5 7 11 8 7 8 6 6 4 5 6 3 2 1 -0 -2
10 13 9 7 5 12 21 6 21 61 49 27 23 30 4 17 3 3 12 6 9 7 -3 11 5 5 6 5 3 5 3 4 4 4 7 9 8 10 9 10 7 5 4 4 3 5 4 5 5
3 15 11 6 17 14 -4 5 10 50 56 25 5 21 39 15 12 4 6 10 5 7 5 10 6 7 6 5 4 3 3 4 3 5 6 5 9 11 10 6 9 11 10 8 9 5 3 4 5
9 13 23 5 -4 8 -2 26 17 4 55 57 20 7 16 11 25 19 9 10 9 3 7 2 4 4 7 7 4 2 3 3 3 6 9 7 6 8 15 5 6 9 13 10 9 7 6 6 4
25 27 18 17 7 13 18 28 -0 15 46 48 38 21 21 12 42 2 27 11 12 10 5 11 5 1 8 5 3 2 4 4 2 2 2 6 5 -3 4 12 7 14 5 13 -1 2 13 10 5
7 24 19 13 10 6 27 17 26 50 48 17 35 16 25 59 49 50 -1 32 3 15 10 1 5 6 7 4 3 1 2 2 1 5 1 5 4 -12 2 5 -9 17 -5 2 10 14 13 -9 30
Height
5804 5803 5802 5803 5805 5800 5800 5804 5815 5820 5820 5820 5819 5819 5822 5822 5826 5832 5834 5836 5838 5840 5842 5844 5846 5847 5848 5850 5852 5853 5855 5857 5859 5861 5863 5865 5867 5869 5870 5872 5873 5875 5876 5876 5877 5877 5877 5876 5876
5796 5796 5795 5794 5792 5791 5795 5800 5809 5815 5812 5811 5811 5812 5816 5818 5820 5826 5829 5831 5833 5836 5839 5841 5843 5844 5846 5847 5849 5851 5853 5855 5857 5859 5862 5864 5866 5868 5869 5871 5873 5874 5875 5876 5877 5878 5878 5877 5877
5789 5787 5787 5785 5783 5783 5789 5792 5802 5802 5801 5802 5803 5805 5808 5813 5816 5820 5824 5826 5829 5831 5834 5837 5840 5842 5843 5845 5847 5849 5851 5853 5855 5857 5860 5862 5865 5867 5868 5870 5871 5873 5874 5876 5876 5878 5878 5878 5878
5780 5778 5779 5776 5774 5778 5783 5786 5786 5788 5792 5793 5796 5799 5802 5807 5810 5813 5819 5821 5823 5826 5829 5832 5835 5838 5840 5842 5844 5847 5849 5851 5853 5856 5859 5861 5863 5865 5867 5868 5870 5872 5873 5875 5876 5877 5878 5879 5879
5769 5768 5768 5767 5769 5774 5775 5775 5774 5778 5779 5782 5785 5789 5794 5797 5802 5805 5810 5814 5817 5820 5823 5827 5830 5834 5837 5838 5841 5843 5846 5849 5851 5854 5857 5859 5862 5863 5866 5867 5869 5871 5872 5874 5876 5877 5878 5879 5879
5754 5757 5756 5757 5762 5763 5763 5766 5762 5764 5769 5772 5775 5778 5785 5791 5794 5798 5801 5806 5810 5814 5817 5820 5824 5828 5832 5834 5837 5840 5842 5845 5848 5851 5855 5857 5859 5861 5864 5866 5867 5869 5870 5873 5875 5876 5878 5879 5880
5740 5741 5745 5748 5750 5751 5758 5758 5754 5755 5757 5760 5765 5767 5774 5781 5784 5788 5791 5796 5802 5806 5810 5814 5818 5823 5827 5830 5833 5836 5839 5842 5844 5848 5852 5854 5857 5859 5862 5864 5866 5867 5869 5871 5873 5875 5876 5878 5879
5729 5725 5731 5736 5738 5742 5747 5749 5746 5743 5746 5748 5750 5757 5761 5769 5773 5777 5781 5787 5792 5797 5802 5807 5811 5816 5822 5825 5828 5832 5835 5838 5840 5844 5847 5851 5854 5856 5859 5861 5864 5865 5867 5869 5871 5873 5875 5876 5878
5710 5709 5714 5723 5722 5728 5732 5735 5734 5730 5732 5737 5740 5744 5752 5755 5761 5766 5770 5776 5782 5787 5793 5800 5805 5809 5815 5819 5823 5826 5831 5834 5837 5839 5843 5846 5850 5853 5856 5859 5861 5864 5866 5867 5869 5871 5873 5875 5876
5690 5691 5702 5706 5706 5707 5711 5714 5717 5719 5721 5725 5731 5734 5739 5743 5750 5755 5761 5766 5772 5780 5786 5792 5798 5803 5808 5813 5817 5821 5826 5829 5832 5835 5838 5841 5845 5848 5852 5856 5858 5861 5863 5865 5866 5868 5870 5872 5874
5670 5671 5690 5683 5683 5684 5691 5695 5699 5704 5708 5714 5720 5725 5725 5732 5738 5745 5751 5757 5764 5772 5777 5782 5787 5794 5800 5805 5810 5815 5820 5823 5827 5831 5834 5837 5840 5844 5848 5852 5855 5858 5860 5863 5865 5866 5867 5869 5871
5641 5655 5659 5664 5660 5662 5669 5674 5679 5686 5699 5698 5703 5709 5713 5719 5727 5732 5739 5746 5751 5758 5765 5771 5777 5784 5790 5796 5801 5807 5812 5817 5822 5826 5829 5832 5836 5840 5844 5847 5850 5854 5857 5859 5862 5863 5865 5866 5868
5613 5632 5631 5637 5634 5637 5642 5651 5655 5672 5681 5683 5688 5694 5701 5704 5714 5721 5725 5734 5741 5747 5755 5762 5768 5774 5781 5787 5793 5800 5805 5811 5816 5821 5824 5827 5831 5836 5839 5843 5847 5851 5853 5856 5858 5860 5862 5864 5865
5587 5588 5596 5603 5611 5614 5614 5624 5631 5668 5661 5666 5671 5679 5686 5690 5699 5708 5713 5720 5728 5736 5742 5750 5758 5764 5770 5777 5784 5791 5797 5803 5809 5814 5818 5822 5826 5830 5834 5838 5842 5846 5850 5852 5855 5857 5858 5860 5862
5546 5542 5553 5568 5578 5577 5585 5593 5615 5646 5637 5645 5652 5661 5671 5677 5684 5694 5704 5710 5719 5726 5734 5741 5748 5754 5760 5768 5775 5782 5789 5795 5801 5808 5812 5817 5821 5825 5829 5833 5838 5841 5846 5849 5851 5853 5855 5857 5858
5509 5506 5512 5542 5540 5542 5549 5564 5610 5609 5608 5626 5635 5644 5656 5666 5672 5680 5691 5698 5706 5716 5723 5730 5736 5744 5752 5759 5766 5773 5781 5788 5794 5801 5806 5811 5815 5819 5824 5828 5832 5837 5840 5844 5847 5850 5852 5854 5855
5478 5469 5473 5498 5502 5512 5518 5531 5573 5573 5580 5600 5612 5624 5635 5649 5658 5668 5677 5687 5694 5704 5712 5719 5727 5735 5742 5748 5756 5763 5772 5779 5786 5793 5799 5804 5809 5813 5818 5823 5827 5832 5836 5839 5843 5845 5848 5850 5852
5440 5440 5446 5453 5479 5483 5492 5500 5531 5535 5550 5570 5590 5605 5616 5631 5645 5656 5664 5673 5682 5691 5701 5710 5718 5725 5731 5739 5745 5752 5761 5769 5777 5784 5791 5798 5803 5808 5813 5818 5823 5827 5831 5834 5837 5840 5843 5845 5847
5421 5418 5421 5434 5454 5445 5461 5472 5502 5511 5526 5547 5566 5583 5600 5617 5629 5638 5650 5660 5672 5680 5689 5698 5707 5714 5722 5730 5738 5746 5755 5763 5771 5778 5785 5791 5796 5802 5807 5812 5816 5820 5825 5828 5832 5836 5838 5840 5842
5410 5405 5409 5412 5432 5423 5434 5445 5470 5487 5506 5526 5542 5565 5580 5594 5610 5625 5638 5648 5660 5669 5678 5688 5698 5707 5716 5725 5732 5739 5747 5754 5762 5770 5777 5784 5790 5796 5800 5805 5810 5815 5819 5823 5826 5829 5832 5834 5836
5402 5398 5396 5397 5407 5401 5414 5421 5447 5470 5480 5499 5522 5545 5564 5580 5595 5610 5624 5637 5648 5658 5667 5678 5689 5699 5708 5716 5722 5729 5736 5746 5754 5762 5769 5776 5782 5788 5794 5799 5804 5808 5813 5817 5820 5823 5826 5828 5830
5395 5392 5389 5389 5388 5391 5401 5397 5419 5447 5460 5477 5501 5522 5547 5564 5580 5594 5608 5623 5637 5648 5658 5669 5679 5688 5697 5706 5714 5724 5733 5741 5748 5756 5762 5769 5775 5782 5787 5792 5797 5802 5806 5811 5814 5817 5819 5822 5824
5395 5392 5388 5385 5383 5381 5389 5383 5400 5419 5439 5462 5485 5506 5529 5548 5564 5581 5597 5611 5626 5636 5648 5658 5668 5677 5687 5696 5706 5715 5725 5731 5741 5746 5753 5760 5767 5772 5778 5784 5789 5795 5799 5804 5807 5810 5813 5816 5818
5393 5389 5387 5384 5382 5379 5383 5380 5388 5407 5430 5452 5471 5492 5511 5532 5550 5568 5584 5597 5610 5623 5636 5648 5658 5669 5681 5688 5697 5707 5716 5725 5732 5740 5746 5752 5759 5765 5771 5777 5782 5787 5792 5796 5800 5803 5806 5809 5812
5394 5390 5386 5383 5380 5377 5376 5375 5383 5397 5416 5439 5459 5481 5495 5514 5534 5549 5566 5582 5598 5611 5625 5638 5649 5661 5673 5682 5691 5699 5708 5717 5725 5732 5740 5745 5752 5758 5764 5769 5775 5779 5783 5787 5791 5795 5799 5801 5804
5396 5391 5387 5383 5382 5379 5378 5380 5381 5384 5399 5423 5445 5462 5478 5494 5516 5534 5551 5569 5586 5602 5614 5628 5640 5651 5664 5674 5683 5691 5700 5709 5717 5724 5732 5739 5744 5750 5754 5760 5764 5769 5774 5778 5782 5786 5789 5793 5795
5401 5396 5391 5387 5385 5381 5381 5384 5384 5385 5388 5401 5423 5439 5463 5483 5505 5526 5542 5558 5576 5591 5606 5619 5631 5643 5655 5665 5675 5683 5692 5702 5710 5717 5724 5731 5738 5744 5748 5753 5757 5762 5767 5771 5774 5778 5781 5784 5787
5402 5397 5394 5390 5387 5385 5385 5387 5386 5386 5386 5398 5420 5440 5458 5473 5492 5511 5529 5545 5564 5580 5596 5608 5619 5633 5646 5657 5667 5676 5685 5694 5702 5709 5716 5724 5731 5737 5742 5746 5750 5755 5759 5763 5767 5771 5773 5776 5778
5402 5398 5395 5392 5390 5388 5387 5389 5389 5388 5387 5397 5418 5438 5456 5472 5488 5505 5519 5537 5553 5567 5581 5598 5611 5624 5636 5648 5658 5668 5676 5685 5694 5702 5711 5716 5722 5729 5735 5737 5743 5747 5751 5755 5759 5762 5765 5768 5770
5406 5402 5398 5395 5395 5392 5391 5393 5393 5391 5392 5400 5419 5439 5456 5472 5484 5498 5512 5528 5544 5559 5572 5588 5601 5615 5628 5639 5649 5659 5667 5676 5685 5694 5701 5709 5716 5721 5728 5730 5735 5740 5745 5749 5752 5755 5758 5760 5761